map of PVK home
PVK - Airport
Location
City:  Preveza/Lefkada, Dytikí Elláda (Western Greece), Greece
Near (Alt.):Lefkas
Name:Aktion National
ICAO:LGPZ
IATA:PVK

Details
Type:Airport (Aerodrome, Airfield)
Use:Military
Latitude:38°55'32"N (38.925467)
Longitude:20°45'55"E (20.765311)
Datum:WGS 1984
Elevation:11 ft (3 m)
Variation:4.13°E (WMM2015 magnetic declination)
0.10° annual change
Runways:1
Longest:9419 × 148 ft (2871 × 45 m), paved

Time
Time Zone:UTC+2 (DST+3)
Local Time:

Weather
METAR:LGPZ 220850Z 29005KT 9999 FEW025 28/20 Q1011 BLU
TAF:LGPZ 220500Z 2206/2306 05006KT 9999 FEW025 SCT080
BECMG 2210/2212 27010KT
BECMG 2222/2224 05007KT

Related Locations
Nearby:
Farthest:CHT: 11486 mi / 18484 km
Waitangi [Tuuta], CIT, NZ

Find:

   beyond  
but within

Other Information
Maps:
NOTAMs:
Links:
Sources:

  
flag of Greece   

Sectional Chart

Flight Planning
at skyvector.com

Satellite Image

Google Maps Satellite view

 

Copyright © 2004-2017 Karl L. Swartz. All rights reserved.
The Great Circle Mapper name and logo are trademarks of the Great Circle Mapper.
All other trademarks mentioned herein belong to their respective owners.
Please see credits for attibutions and further copyright information.

  Follow gcmap on Facebook Follow gcmap on Twitter Follow gcmap on Google+ GCmap on LinkedIn

hCard Microformat

Geo Microformat